Location: Strawberry
(45.6646°N, 111.9596°W)
Time: 08:48:50
(UTC+00:00)

STRAND 1 - Visible Passes

Search period start: 26 November 2022 00:00
Search period end: 06 December 2022 00:00
Orbit: 767 x 780 km, 98.4° (Epoch: 25 November)

Date Brightness Start Highest point End Pass type
(mag) Time Alt. Az. Time Alt. Az. Time Alt. Az.
26 Nov ? 01:20:13 15° ESE 01:20:13 15° ESE 01:21:39 10° SE visible
26 Nov ? 03:00:36 26° SW 03:00:36 26° SW 03:02:47 10° SSW visible
26 Nov ? 12:32:16 10° SE 12:36:48 33° ENE 12:41:20 10° N visible
27 Nov ? 02:25:57 31° S 02:25:57 31° S 02:28:36 10° S visible
27 Nov ? 11:59:32 10° E 12:02:53 18° ENE 12:06:15 10° NNE visible
27 Nov ? 13:36:23 10° S 13:41:30 71° WSW 13:46:38 10° NNW visible
28 Nov ? 01:51:16 24° SE 01:51:16 24° SE 01:53:43 10° SSE visible
28 Nov ? 03:31:39 16° WSW 03:31:39 16° WSW 03:32:49 10° SW visible
28 Nov ? 13:02:15 10° SSE 13:07:17 59° ENE 13:12:19 10° N visible
29 Nov ? 01:16:36 14° ESE 01:16:36 14° ESE 01:17:47 10° SE visible
29 Nov ? 02:56:59 26° SSW 02:56:59 26° SSW 02:59:13 10° SSW visible
29 Nov ? 12:28:47 10° SE 12:33:13 31° ENE 12:37:40 10° N visible
29 Nov ? 14:07:32 10° SSW 14:12:16 38° W 14:17:02 10° NNW visible
30 Nov ? 02:22:19 31° S 02:22:19 31° S 02:24:58 10° S visible
30 Nov ? 11:56:09 10° E 11:59:19 17° ENE 12:02:30 10° NNE visible
30 Nov ? 13:32:46 10° S 13:37:53 76° WSW 13:43:02 10° NNW visible
01 Dec ? 01:47:38 23° SE 01:47:38 23° SE 01:49:59 10° SSE visible
01 Dec ? 03:28:00 17° SW 03:28:00 17° SW 03:29:18 10° SW visible
01 Dec ? 12:58:41 10° SSE 13:03:40 55° ENE 13:08:40 10° N visible
02 Dec ? 01:12:56 13° ESE 01:12:56 13° ESE 01:13:54 10° SE visible
02 Dec ? 02:53:19 27° SSW 02:53:19 27° SSW 02:55:38 10° SSW visible
02 Dec ? 12:25:17 10° ESE 12:29:38 29° ENE 12:33:59 10° N visible
02 Dec ? 14:03:50 10° SSW 14:08:38 40° W 14:13:28 10° NNW visible
03 Dec ? 02:18:38 31° SSE 02:18:38 31° SSE 02:21:18 10° S visible
03 Dec ? 11:52:46 10° E 11:55:45 16° ENE 11:58:44 10° NNE visible
03 Dec ? 13:29:09 10° SSE 13:34:16 81° WSW 13:39:25 10° NNW visible
04 Dec ? 01:43:56 22° SE 01:43:56 22° SE 01:46:14 10° SSE visible
04 Dec ? 03:24:19 18° SW 03:24:19 18° SW 03:25:46 10° SW visible
04 Dec ? 12:55:08 10° SE 13:00:04 51° ENE 13:05:01 10° N visible
05 Dec ? 01:09:13 12° ESE 01:09:13 12° ESE 01:09:59 10° ESE visible
05 Dec ? 02:49:36 29° SSW 02:49:36 29° SSW 02:52:02 10° SSW visible
05 Dec ? 12:21:48 10° ESE 12:26:02 27° ENE 12:30:17 10° N visible
05 Dec ? 14:00:08 10° S 14:05:00 43° W 14:09:53 10° NNW visible
